TIANWANG 1C (TW-1C)
1 40926U 15051B   19266.92704024 +.00009428 +00000-0 +12986-3 0  9997
2 40926 097.1264 313.0295 0008079 024.5616 100.8629 15.57415282225288
TIANWANG 1B (TW-1B)
1 40927U 15051C   19266.85151784  .00008378  00000-0  12300-3 0  9992
2 40927  97.1290 312.1251 0008681  33.6579  52.6539 15.55718775225115
TIANWANG 1A (TW-1A)
1 40928U 15051D   19266.77233441  .00002037  00000-0  50915-4 0  9996
2 40928  97.1391 295.9161 0012720  80.7103  32.9476 15.41212843224122
LAPAN A2
1 40931U 15052B   19266.00320955  .00000766  00000-0  17567-4 0  9997
2 40931   5.9955  89.7955 0013293  76.4663 283.7016 14.76614894215527
LQSAT
1 40958U 15057A   19266.76569064 -.00000007  00000-0  65695-5 0  9995
2 40958  97.8903 333.2981 0016810 291.3286  68.6127 14.73089273213099
CHUBUSAT 2
1 41338U 16012B   19266.37035178 +.00000313 +00000-0 +17629-4 0  9993
2 41338 031.0026 250.3545 0013766 340.6964 019.3149 15.00181294197445
CHUBUSAT 3
1 41339U 16012C   19266.32859662  .00000267  00000-0  14000-4 0  9999
2 41339  31.0107 248.5917 0013807 348.4688  11.5626 15.00354481197436
OUFTI-1
1 41458U 16025C   19266.53465718 +.00001192 +00000-0 +64106-4 0  9993
2 41458 098.1005 358.3026 0166538 031.9052 329.2129 15.06030124187144
E-STAR-2
1 41459U 16025D   19266.84033169  .00000919  00000-0  50730-4 0  9993
2 41459  98.1015 358.2324 0168025  32.4511 328.6903 15.05659533187160
AAUSAT 4
1 41460U 16025E   19266.82551833  .00000688  00000-0  38333-4 0  9994
2 41460  98.0926 359.7013 0157871  23.8425 336.9988 15.07618066187307
NUSAT 1
1 41557U 16033B   19266.87922151 +.00000964 +00000-0 +38661-4 0  9991
2 41557 097.4157 353.8125 0012571 319.7801 040.2507 15.27382801184928
BEESAT 4
1 41619U 16040W   19266.87220101 +.00001056 +00000-0 +47388-4 0  9993
2 41619 097.3584 327.2460 0012473 048.2674 311.9627 15.23308564168653
PRATHAM
1 41783U 16059A   19266.71813203  .00000029  00000-0  14709-4 0  9999
2 41783  98.0579 324.1091 0034880  79.5677 280.9453 14.63009895159738
ALSAT 1N
1 41789U 16059G   19266.89729234 +.00000053 +00000-0 +19001-4 0  9991
2 41789 098.0606 326.4922 0029498 068.4681 291.9652 14.64262636159877
NAYIF 1
1 42017U 17008BX  19266.90101096 +.00001144 +00000-0 +47671-4 0  9999
2 42017 097.3947 332.9601 0006372 171.6033 188.5313 15.25724163144743
MAX VALIER SAT
1 42778U 17036P   19266.76114750  .00000642  00000-0  30979-4 0  9994
2 42778  97.3449 322.2448 0010890 239.1171 120.8995 15.22139848125008
